AFL1751 UEEE-UUEE

Flight info

Callsign AFL1751
Flight time N/A
Altitude 38000
Route NIBES6E NIBES W19 PLR M130 BI T791 ARKUK T818 USINA T187 GONIB T791 KTL T187 ROMTA ROMTA3F
Aircraft B77W/H-SDE1E2E3FGHIJ2J3J4J5M1RWXY/LB1D1

Departure

Time 2026-04-24 10:25
Airport Platon Oyunsky Yakutsk International Airport (UEEE)

Arrival

Time N/A
Airport Sheremetyevo International Airport (UUEE)
Time Latitude Longitude Altitude Speed Heading
2026-04-24 10:04 62.09926 129.76620 336 ft 0 kts 124°
2026-04-24 10:17 62.09925 129.76620 336 ft 0 kts 124°
2026-04-24 10:17 62.09924 129.76625 336 ft 1 kts 124°
2026-04-24 10:18 62.09917 129.76648 334 ft 5 kts 124°
2026-04-24 10:18 62.09881 129.76692 332 ft 7 kts 179°
2026-04-24 10:18 62.09838 129.76651 333 ft 7 kts 214°
2026-04-24 10:18 62.09777 129.76562 332 ft 16 kts 214°
2026-04-24 10:19 62.09665 129.76402 332 ft 21 kts 211°
2026-04-24 10:19 62.09540 129.76255 333 ft 21 kts 209°
2026-04-24 10:19 62.09415 129.76108 333 ft 21 kts 209°
2026-04-24 10:19 62.09291 129.75956 331 ft 21 kts 210°
2026-04-24 10:20 62.09168 129.75802 331 ft 21 kts 210°
2026-04-24 10:20 62.09044 129.75647 332 ft 21 kts 210°
2026-04-24 10:20 62.08923 129.75497 332 ft 14 kts 209°
2026-04-24 10:20 62.08839 129.75396 333 ft 13 kts 210°
2026-04-24 10:21 62.08757 129.75341 332 ft 8 kts 166°
2026-04-24 10:21 62.08703 129.75372 333 ft 8 kts 181°
2026-04-24 10:21 62.08647 129.75347 331 ft 9 kts 193°
2026-04-24 10:21 62.08575 129.75306 333 ft 11 kts 202°
2026-04-24 10:22 62.08507 129.75229 331 ft 11 kts 209°
2026-04-24 10:22 62.08439 129.75148 333 ft 11 kts 209°
2026-04-24 10:22 62.08377 129.75087 334 ft 7 kts 177°
2026-04-24 10:22 62.08338 129.75158 332 ft 9 kts 122°
2026-04-24 10:23 62.08301 129.75290 331 ft 12 kts 119°
2026-04-24 10:23 62.08259 129.75450 332 ft 13 kts 119°
2026-04-24 10:23 62.08220 129.75615 334 ft 12 kts 105°
2026-04-24 10:23 62.08236 129.75729 332 ft 8 kts 54°
2026-04-24 10:24 62.08261 129.75786 333 ft 0 kts 37°
2026-04-24 10:24 62.08264 129.75791 333 ft 1 kts 37°
2026-04-24 10:24 62.08267 129.75796 333 ft 3 kts 37°
2026-04-24 10:24 62.08469 129.76119 333 ft 75 kts 37°
2026-04-24 10:25 62.09087 129.77109 334 ft 145 kts 37°
2026-04-24 10:25 62.10048 129.78628 379 ft 192 kts 36°
2026-04-24 10:25 62.11133 129.80327 992 ft 195 kts 36°
2026-04-24 10:25 62.12189 129.82110 1713 ft 197 kts 37°
2026-04-24 10:26 62.13300 129.83880 2311 ft 206 kts 37°
2026-04-24 10:26 62.14526 129.85825 2563 ft 230 kts 37°
2026-04-24 10:26 62.15849 129.87864 3162 ft 240 kts 37°
2026-04-24 10:26 62.17216 129.89996 3886 ft 244 kts 38°
2026-04-24 10:27 62.18594 129.92220 4586 ft 250 kts 39°
2026-04-24 10:27 62.20147 129.93926 5181 ft 260 kts 11°
2026-04-24 10:27 62.21950 129.93607 5877 ft 267 kts 339°
2026-04-24 10:27 62.23448 129.91228 6565 ft 272 kts 307°
2026-04-24 10:28 62.24525 129.87908 7281 ft 271 kts 305°
2026-04-24 10:28 62.25620 129.84572 7924 ft 277 kts 306°
2026-04-24 10:28 62.26777 129.81239 8678 ft 278 kts 308°
2026-04-24 10:28 62.27952 129.77935 9483 ft 279 kts 308°
2026-04-24 10:29 62.29112 129.74646 10220 ft 281 kts 308°
2026-04-24 10:29 62.30307 129.71236 10652 ft 296 kts 308°
2026-04-24 10:29 62.31583 129.67533 10825 ft 318 kts 304°
2026-04-24 10:29 62.32441 129.63016 10950 ft 338 kts 280°
2026-04-24 10:30 62.32729 129.57843 11163 ft 358 kts 277°
2026-04-24 10:30 62.33018 129.52440 11793 ft 368 kts 278°
2026-04-24 10:30 62.33331 129.46922 12666 ft 374 kts 278°
2026-04-24 10:30 62.33657 129.41350 13646 ft 377 kts 278°
2026-04-24 10:31 62.33992 129.35723 14555 ft 381 kts 278°
2026-04-24 10:31 62.34332 129.30050 15357 ft 386 kts 278°
2026-04-24 10:31 62.34678 129.24271 16142 ft 392 kts 278°
2026-04-24 10:31 62.35029 129.18394 16970 ft 397 kts 278°
2026-04-24 10:32 62.35381 129.12444 17795 ft 403 kts 278°
2026-04-24 10:32 62.35735 129.06414 18567 ft 408 kts 278°
2026-04-24 10:32 62.36248 129.00420 19141 ft 409 kts 290°
2026-04-24 10:32 62.37615 128.95056 19673 ft 410 kts 308°
2026-04-24 10:33 62.39382 128.90193 20137 ft 418 kts 307°
2026-04-24 10:33 62.41139 128.85109 20813 ft 423 kts 306°
2026-04-24 10:33 62.42852 128.80007 21504 ft 427 kts 305°
2026-04-24 10:33 62.44593 128.74761 22158 ft 432 kts 304°
2026-04-24 10:34 62.46353 128.69436 22776 ft 438 kts 304°
2026-04-24 10:34 62.48132 128.64045 23402 ft 443 kts 304°
2026-04-24 10:34 62.49923 128.58612 23984 ft 447 kts 304°
2026-04-24 10:34 62.51743 128.53087 24524 ft 451 kts 304°
2026-04-24 10:35 62.53562 128.47555 25053 ft 454 kts 304°
2026-04-24 10:35 62.55401 128.41951 25565 ft 458 kts 304°
2026-04-24 10:35 62.56627 128.38207 25901 ft 461 kts 304°
2026-04-24 10:35 62.58489 128.32512 26394 ft 465 kts 304°
2026-04-24 10:36 62.60363 128.26766 26870 ft 468 kts 304°
2026-04-24 10:36 62.62249 128.20965 27353 ft 472 kts 304°
2026-04-24 10:36 62.64149 128.15110 27809 ft 476 kts 304°
2026-04-24 10:36 62.66061 128.09198 28233 ft 480 kts 304°
2026-04-24 10:37 62.67991 128.03217 28652 ft 484 kts 304°
2026-04-24 10:37 62.69928 127.97198 29057 ft 487 kts 303°
2026-04-24 10:37 62.71849 127.91214 29466 ft 489 kts 303°
2026-04-24 10:37 62.73819 127.85061 30020 ft 489 kts 303°
2026-04-24 10:38 62.75761 127.78981 30517 ft 488 kts 303°
2026-04-24 10:38 62.77695 127.72908 31010 ft 486 kts 303°
2026-04-24 10:38 62.79630 127.66815 31469 ft 486 kts 303°
2026-04-24 10:38 62.81523 127.60836 31899 ft 486 kts 303°
2026-04-24 10:39 62.83442 127.54763 32255 ft 487 kts 303°
2026-04-24 10:39 62.85374 127.48634 32622 ft 488 kts 303°
2026-04-24 10:39 62.87296 127.42517 33061 ft 487 kts 303°
2026-04-24 10:39 62.89208 127.36418 33517 ft 486 kts 303°
2026-04-24 10:40 62.91115 127.30311 33929 ft 485 kts 303°
2026-04-24 10:40 62.93026 127.24176 34081 ft 489 kts 303°
2026-04-24 10:40 62.94947 127.17989 34118 ft 490 kts 303°
2026-04-24 10:41 62.98766 127.05644 34097 ft 485 kts 303°
2026-04-24 10:41 63.02552 126.93344 34117 ft 485 kts 302°
2026-04-24 10:42 63.06330 126.80995 34119 ft 487 kts 302°
2026-04-24 10:42 63.10108 126.68584 34120 ft 489 kts 302°
2026-04-24 10:43 63.13894 126.56076 34115 ft 490 kts 302°
2026-04-24 10:43 63.17655 126.43586 34118 ft 491 kts 302°
2026-04-24 10:44 63.21455 126.30890 34115 ft 492 kts 302°
2026-04-24 10:44 63.25197 126.18322 34116 ft 492 kts 301°
2026-04-24 10:45 63.28965 126.05599 34113 ft 492 kts 301°
2026-04-24 10:45 63.32724 125.92829 34118 ft 492 kts 301°
2026-04-24 10:46 63.36455 125.80083 34118 ft 492 kts 301°
2026-04-24 10:46 63.40185 125.67268 34121 ft 493 kts 300°
2026-04-24 10:47 63.43908 125.54404 34117 ft 493 kts 300°
2026-04-24 10:47 63.47626 125.41486 34119 ft 494 kts 300°
2026-04-24 10:48 63.51332 125.28534 34120 ft 494 kts 300°
2026-04-24 10:48 63.55028 125.15543 34140 ft 494 kts 300°
2026-04-24 10:49 63.58715 125.02506 34126 ft 495 kts 299°
2026-04-24 10:49 63.62400 124.89412 34126 ft 496 kts 299°
2026-04-24 10:50 63.66075 124.76268 34121 ft 496 kts 299°
2026-04-24 10:50 63.69747 124.63055 34123 ft 496 kts 299°
2026-04-24 10:51 63.73371 124.49942 34122 ft 497 kts 298°
2026-04-24 10:51 63.77010 124.36694 34123 ft 497 kts 298°
2026-04-24 10:52 63.80647 124.23378 34121 ft 497 kts 298°
2026-04-24 10:52 63.84270 124.10033 34122 ft 497 kts 298°
2026-04-24 10:53 63.87878 123.96663 34121 ft 497 kts 298°
2026-04-24 10:53 63.91481 123.83233 34131 ft 498 kts 297°
2026-04-24 10:54 63.95065 123.69765 34112 ft 498 kts 297°
2026-04-24 10:54 63.98636 123.56274 34111 ft 497 kts 297°
2026-04-24 10:55 64.02204 123.42801 34113 ft 496 kts 297°
2026-04-24 10:55 64.05735 123.29303 34115 ft 495 kts 297°
2026-04-24 10:56 64.09229 123.15863 34139 ft 496 kts 296°
2026-04-24 10:56 64.12747 123.02255 34124 ft 496 kts 296°
2026-04-24 10:57 64.16253 122.88629 34120 ft 496 kts 296°
2026-04-24 10:57 64.19741 122.74975 34117 ft 497 kts 296°
2026-04-24 10:58 64.23219 122.61268 34122 ft 497 kts 296°
2026-04-24 10:58 64.26690 122.47507 34118 ft 497 kts 296°
2026-04-24 10:59 64.30149 122.33727 34130 ft 497 kts 296°
2026-04-24 10:59 64.33646 122.19967 34124 ft 497 kts 296°
2026-04-24 11:00 64.37145 122.06159 34125 ft 497 kts 296°
2026-04-24 11:00 64.40635 121.92391 34159 ft 497 kts 296°
2026-04-24 11:01 64.44136 121.78559 34143 ft 498 kts 296°
2026-04-24 11:01 64.47625 121.64678 34121 ft 498 kts 296°
2026-04-24 11:02 64.51097 121.50755 34124 ft 498 kts 296°
2026-04-24 11:02 64.54557 121.36795 34141 ft 498 kts 295°
2026-04-24 11:03 64.58007 121.22794 34154 ft 499 kts 295°
2026-04-24 11:03 64.61445 121.08749 34135 ft 499 kts 295°
2026-04-24 11:04 64.64849 120.94739 34129 ft 499 kts 295°
2026-04-24 11:04 64.68259 120.80615 34129 ft 499 kts 295°
2026-04-24 11:05 64.71655 120.66460 34127 ft 499 kts 295°
2026-04-24 11:05 64.75037 120.52275 34146 ft 499 kts 295°
2026-04-24 11:06 64.78406 120.38050 34129 ft 499 kts 295°
2026-04-24 11:06 64.81759 120.23797 34127 ft 499 kts 295°
2026-04-24 11:07 64.86764 120.02357 34129 ft 498 kts 295°
2026-04-24 11:07 64.90079 119.88043 34130 ft 498 kts 294°
2026-04-24 11:08 64.93374 119.73684 34132 ft 498 kts 295°
2026-04-24 11:08 64.96632 119.59389 34130 ft 498 kts 295°
2026-04-24 11:09 64.99895 119.44974 34131 ft 497 kts 294°
2026-04-24 11:09 65.03144 119.30535 34133 ft 497 kts 294°
2026-04-24 11:10 65.06377 119.16066 34160 ft 497 kts 294°
2026-04-24 11:10 65.09597 119.01559 34136 ft 497 kts 295°
2026-04-24 11:11 65.12801 118.87026 34137 ft 497 kts 294°
2026-04-24 11:11 65.15988 118.72470 34135 ft 496 kts 294°
2026-04-24 11:12 65.19160 118.57889 34135 ft 496 kts 294°
2026-04-24 11:12 65.22317 118.43280 34160 ft 496 kts 294°
2026-04-24 11:13 65.25466 118.28623 34147 ft 497 kts 294°
2026-04-24 11:13 65.28606 118.13921 34141 ft 497 kts 294°
2026-04-24 11:14 65.31731 117.99191 34138 ft 497 kts 294°
2026-04-24 11:14 65.34849 117.84387 34141 ft 497 kts 294°
2026-04-24 11:15 65.37949 117.69561 34159 ft 498 kts 294°
2026-04-24 11:15 65.41035 117.54697 34133 ft 498 kts 294°
2026-04-24 11:16 65.44117 117.39748 34149 ft 499 kts 294°
2026-04-24 11:16 65.47169 117.24848 34133 ft 500 kts 294°
2026-04-24 11:17 65.50219 117.09831 34135 ft 500 kts 293°
2026-04-24 11:17 65.53248 116.94753 34154 ft 500 kts 293°
2026-04-24 11:18 65.56262 116.79641 34144 ft 499 kts 293°
2026-04-24 11:18 65.59260 116.64509 34143 ft 499 kts 293°
2026-04-24 11:19 65.62245 116.49336 34143 ft 499 kts 293°
2026-04-24 11:19 65.65205 116.34173 34143 ft 498 kts 292°
2026-04-24 11:20 65.68153 116.18980 34157 ft 497 kts 293°
2026-04-24 11:20 65.71085 116.03792 34143 ft 496 kts 293°
2026-04-24 11:21 65.73987 115.88701 34145 ft 495 kts 293°
2026-04-24 11:21 65.76882 115.73525 34147 ft 494 kts 292°
2026-04-24 11:22 65.79759 115.58341 34149 ft 493 kts 292°
2026-04-24 11:22 65.82614 115.43126 34148 ft 493 kts 292°
2026-04-24 11:23 65.85439 115.27889 34149 ft 493 kts 292°
2026-04-24 11:23 65.87798 115.15074 34149 ft 493 kts 292°
2026-04-24 11:24 65.90605 114.99726 34153 ft 494 kts 292°
2026-04-24 11:24 65.93398 114.84344 34152 ft 494 kts 291°
2026-04-24 11:25 65.96160 114.69018 34160 ft 495 kts 292°
2026-04-24 11:25 65.98928 114.53543 34147 ft 494 kts 292°
2026-04-24 11:26 66.01674 114.38069 34135 ft 494 kts 291°
2026-04-24 11:26 66.04399 114.22590 34135 ft 493 kts 291°
2026-04-24 11:27 66.07104 114.07104 34137 ft 492 kts 291°
2026-04-24 11:27 66.09792 113.91585 34148 ft 492 kts 291°
2026-04-24 11:28 66.12463 113.76053 34134 ft 492 kts 291°
2026-04-24 11:28 66.15119 113.60483 34130 ft 492 kts 291°
2026-04-24 11:29 66.17745 113.44964 34129 ft 492 kts 291°
2026-04-24 11:29 66.20371 113.29319 34128 ft 492 kts 291°
2026-04-24 11:30 66.22983 113.13631 34132 ft 492 kts 291°
2026-04-24 11:30 66.25579 112.97912 34122 ft 492 kts 291°
2026-04-24 11:31 66.28159 112.82165 34125 ft 492 kts 290°
2026-04-24 11:31 66.30723 112.66400 34125 ft 492 kts 290°
2026-04-24 11:32 66.33255 112.50609 34125 ft 491 kts 290°
2026-04-24 11:32 66.35765 112.34792 34129 ft 491 kts 290°
2026-04-24 11:33 66.38257 112.18988 34129 ft 489 kts 290°
2026-04-24 11:33 66.40756 112.03209 34119 ft 488 kts 292°
2026-04-24 11:34 66.43871 111.88192 34130 ft 487 kts 298°
2026-04-24 11:34 66.47162 111.73375 34121 ft 486 kts 298°
2026-04-24 11:35 66.50398 111.58628 34134 ft 486 kts 297°
2026-04-24 11:35 66.53611 111.43735 34123 ft 485 kts 297°
2026-04-24 11:36 66.56797 111.28799 34126 ft 485 kts 297°
2026-04-24 11:36 66.59965 111.13843 34130 ft 484 kts 297°
2026-04-24 11:37 66.63116 110.98868 34133 ft 484 kts 297°
2026-04-24 11:37 66.66252 110.83861 34126 ft 484 kts 297°
2026-04-24 11:38 66.69373 110.68821 34140 ft 484 kts 297°
2026-04-24 11:38 66.72478 110.53750 34145 ft 483 kts 296°
2026-04-24 11:39 66.75568 110.38649 34137 ft 483 kts 296°
2026-04-24 11:39 66.78641 110.23517 34141 ft 483 kts 296°
2026-04-24 11:40 66.81678 110.08453 34139 ft 483 kts 296°
2026-04-24 11:40 66.84439 109.94669 34158 ft 482 kts 296°
2026-04-24 11:41 66.87445 109.79554 34133 ft 482 kts 296°
2026-04-24 11:41 66.90456 109.64301 34151 ft 481 kts 296°
2026-04-24 11:42 66.93447 109.49041 34156 ft 481 kts 295°
2026-04-24 11:42 66.96421 109.33753 34132 ft 481 kts 295°
2026-04-24 11:43 66.99378 109.18439 34161 ft 480 kts 295°
2026-04-24 11:43 67.02313 109.03128 34147 ft 478 kts 295°
2026-04-24 11:44 67.05224 108.87830 34132 ft 477 kts 295°
2026-04-24 11:44 67.08112 108.72535 34141 ft 476 kts 295°
2026-04-24 11:45 67.10963 108.57331 34150 ft 475 kts 295°
2026-04-24 11:45 67.13814 108.42008 34145 ft 475 kts 294°
2026-04-24 11:46 67.16647 108.26670 34121 ft 474 kts 294°
2026-04-24 11:46 67.19461 108.11314 34123 ft 474 kts 294°
2026-04-24 11:47 67.22261 107.95915 34140 ft 474 kts 294°
2026-04-24 11:47 67.25053 107.80444 34139 ft 475 kts 294°
2026-04-24 11:48 67.27835 107.64915 34119 ft 476 kts 294°
2026-04-24 11:48 67.30580 107.49470 34119 ft 476 kts 293°
2026-04-24 11:49 67.33335 107.33858 34114 ft 476 kts 293°
2026-04-24 11:49 67.36078 107.18184 34127 ft 477 kts 294°
2026-04-24 11:50 67.38799 107.02509 34128 ft 476 kts 293°
2026-04-24 11:50 67.41514 106.86769 34126 ft 476 kts 293°
2026-04-24 11:51 67.44174 106.70992 34122 ft 475 kts 292°
2026-04-24 11:51 67.46767 106.55217 34116 ft 472 kts 292°
2026-04-24 11:52 67.49336 106.39483 34094 ft 470 kts 292°
2026-04-24 11:52 67.51883 106.23788 34113 ft 469 kts 292°
2026-04-24 11:53 67.54412 106.08112 34110 ft 469 kts 292°
2026-04-24 11:53 67.56938 105.92320 34094 ft 470 kts 292°
2026-04-24 11:54 67.59440 105.76544 34094 ft 469 kts 291°
2026-04-24 11:54 67.61928 105.60725 34084 ft 469 kts 291°
2026-04-24 11:55 67.64396 105.44900 34088 ft 468 kts 291°
2026-04-24 11:55 67.66846 105.29063 34086 ft 467 kts 291°
2026-04-24 11:56 67.69280 105.13206 34083 ft 467 kts 291°
2026-04-24 11:56 67.71680 104.97427 34081 ft 467 kts 291°
2026-04-24 11:57 67.74080 104.81523 34073 ft 467 kts 291°
2026-04-24 11:57 67.76461 104.65602 34067 ft 466 kts 290°
2026-04-24 11:58 67.78826 104.49653 34073 ft 466 kts 290°
2026-04-24 11:58 67.81175 104.33681 34060 ft 466 kts 290°
2026-04-24 11:59 67.83508 104.17676 34080 ft 466 kts 290°
2026-04-24 11:59 67.85826 104.01632 34055 ft 466 kts 290°
2026-04-24 12:00 67.88122 103.85605 34061 ft 465 kts 290°
2026-04-24 12:00 67.90400 103.69555 34064 ft 464 kts 290°
2026-04-24 12:01 67.92659 103.53508 34052 ft 464 kts 289°
2026-04-24 12:01 67.94907 103.37409 34056 ft 464 kts 289°
2026-04-24 12:02 67.97162 103.21328 34053 ft 463 kts 289°
2026-04-24 12:02 67.99429 103.05228 34046 ft 463 kts 289°
2026-04-24 12:03 68.01660 102.89232 34044 ft 463 kts 289°
2026-04-24 12:03 68.03888 102.73083 34045 ft 463 kts 289°
2026-04-24 12:04 68.06094 102.56941 34041 ft 463 kts 289°
2026-04-24 12:04 68.08289 102.40734 34049 ft 463 kts 289°
2026-04-24 12:05 68.10466 102.24506 34038 ft 463 kts 288°
2026-04-24 12:05 68.12631 102.08217 34039 ft 463 kts 288°
2026-04-24 12:06 68.14781 101.91891 34038 ft 464 kts 288°
2026-04-24 12:06 68.16902 101.75633 34034 ft 464 kts 288°
2026-04-24 12:07 68.19020 101.59248 34037 ft 464 kts 288°
2026-04-24 12:07 68.21123 101.42822 34030 ft 465 kts 287°
2026-04-24 12:08 68.23214 101.26353 34028 ft 465 kts 287°
2026-04-24 12:08 68.25268 101.09815 34023 ft 465 kts 287°
2026-04-24 12:09 68.27238 100.93210 34023 ft 465 kts 286°
2026-04-24 12:09 68.29184 100.76596 34020 ft 464 kts 286°
2026-04-24 12:10 68.30800 100.62737 34021 ft 464 kts 286°
2026-04-24 12:11 68.33689 100.37733 34024 ft 464 kts 285°
2026-04-24 12:11 68.35594 100.21027 34023 ft 464 kts 285°
2026-04-24 12:12 68.37485 100.04272 34024 ft 464 kts 285°
2026-04-24 12:12 68.39356 99.87522 34028 ft 464 kts 285°
2026-04-24 12:13 68.41210 99.70743 34026 ft 464 kts 285°
2026-04-24 12:13 68.43038 99.54020 34018 ft 464 kts 284°
2026-04-24 12:14 68.44864 99.37129 34022 ft 465 kts 284°
2026-04-24 12:14 68.46672 99.20226 34021 ft 464 kts 284°
2026-04-24 12:15 68.48457 99.03351 34020 ft 464 kts 284°
2026-04-24 12:15 68.50227 98.86436 34025 ft 464 kts 284°
2026-04-24 12:16 68.51982 98.69499 34020 ft 464 kts 284°
2026-04-24 12:16 68.53715 98.52650 34011 ft 464 kts 284°
2026-04-24 12:17 68.55476 98.35658 34018 ft 464 kts 284°
2026-04-24 12:17 68.57226 98.18640 33998 ft 464 kts 284°
2026-04-24 12:18 68.58952 98.01633 34010 ft 464 kts 283°
2026-04-24 12:18 68.60663 97.84558 33999 ft 464 kts 283°
2026-04-24 12:19 68.62355 97.67467 33996 ft 465 kts 283°
2026-04-24 12:19 68.64020 97.50440 34000 ft 466 kts 283°
2026-04-24 12:20 68.65682 97.33251 33993 ft 466 kts 283°
2026-04-24 12:20 68.67328 97.16020 33991 ft 467 kts 282°
2026-04-24 12:21 68.68958 96.98740 33986 ft 467 kts 282°
2026-04-24 12:21 68.70572 96.81432 33991 ft 467 kts 282°
2026-04-24 12:22 68.72170 96.64075 33975 ft 467 kts 282°
2026-04-24 12:22 68.73740 96.46793 33979 ft 467 kts 282°
2026-04-24 12:23 68.75299 96.29420 33961 ft 466 kts 282°
2026-04-24 12:23 68.76836 96.12077 33950 ft 464 kts 281°
2026-04-24 12:24 68.78351 95.94753 33953 ft 463 kts 281°
2026-04-24 12:24 68.79843 95.77448 33952 ft 463 kts 281°
2026-04-24 12:25 68.81320 95.60107 33953 ft 464 kts 281°
2026-04-24 12:25 68.82781 95.42738 33938 ft 464 kts 280°
2026-04-24 12:26 68.84229 95.25295 33936 ft 465 kts 281°
2026-04-24 12:26 68.85650 95.07956 33923 ft 465 kts 281°
2026-04-24 12:27 68.87058 94.90478 33938 ft 465 kts 280°
2026-04-24 12:27 68.88431 94.72908 33903 ft 466 kts 280°
2026-04-24 12:28 68.89792 94.55327 33913 ft 466 kts 279°
2026-04-24 12:28 68.91135 94.37714 33899 ft 466 kts 279°
2026-04-24 12:29 68.92467 94.20127 33891 ft 465 kts 279°
2026-04-24 12:29 68.93773 94.02516 33889 ft 465 kts 278°
2026-04-24 12:30 68.95060 93.84888 33884 ft 465 kts 279°
2026-04-24 12:30 68.96332 93.67208 33882 ft 466 kts 279°
2026-04-24 12:31 68.97588 93.49496 33875 ft 467 kts 279°
2026-04-24 12:31 68.98818 93.31826 33871 ft 467 kts 278°
2026-04-24 12:32 69.00041 93.14006 33853 ft 468 kts 278°
2026-04-24 12:32 69.01244 92.96170 33878 ft 468 kts 278°
2026-04-24 12:33 69.02431 92.78296 33850 ft 468 kts 278°
2026-04-24 12:33 69.03602 92.60395 33848 ft 469 kts 278°
2026-04-24 12:34 69.04755 92.42429 33840 ft 469 kts 278°
2026-04-24 12:34 69.05884 92.24506 33831 ft 468 kts 278°
2026-04-24 12:35 69.06988 92.06683 33837 ft 468 kts 278°
2026-04-24 12:35 69.08080 91.88736 33830 ft 468 kts 277°
2026-04-24 12:36 69.09154 91.70755 33826 ft 468 kts 277°
2026-04-24 12:36 69.10210 91.52747 33811 ft 469 kts 277°
2026-04-24 12:37 69.11248 91.34696 33812 ft 469 kts 277°
2026-04-24 12:37 69.12268 91.16634 33802 ft 469 kts 277°
2026-04-24 12:38 69.13270 90.98536 33810 ft 470 kts 276°
2026-04-24 12:38 69.14253 90.80432 33796 ft 469 kts 276°
2026-04-24 12:39 69.16145 90.44424 33780 ft 466 kts 276°
2026-04-24 12:40 69.17068 90.26369 33776 ft 466 kts 275°
2026-04-24 12:40 69.17979 90.08321 33763 ft 467 kts 276°
2026-04-24 12:41 69.19001 89.90300 33759 ft 468 kts 277°
2026-04-24 12:41 69.20049 89.72142 33755 ft 471 kts 277°
2026-04-24 12:42 69.21070 89.53860 33752 ft 473 kts 277°
2026-04-24 12:42 69.22063 89.35515 33747 ft 474 kts 276°
2026-04-24 12:43 69.23035 89.17100 33735 ft 475 kts 276°
2026-04-24 12:43 69.23981 88.98819 33736 ft 474 kts 276°
2026-04-24 12:44 69.24914 88.80428 33733 ft 473 kts 276°
2026-04-24 12:44 69.25825 88.62058 33721 ft 472 kts 276°
2026-04-24 12:45 69.26717 88.43692 33732 ft 473 kts 276°
2026-04-24 12:45 69.27158 88.34459 33912 ft 475 kts 275°
2026-04-24 12:45 69.27565 88.25228 34335 ft 471 kts 274°
2026-04-24 12:45 69.27874 88.16054 34779 ft 469 kts 273°
2026-04-24 12:46 69.28138 88.06874 35071 ft 469 kts 273°
2026-04-24 12:46 69.28392 87.97676 35319 ft 471 kts 273°
2026-04-24 12:46 69.28654 87.88447 35615 ft 471 kts 273°
2026-04-24 12:47 69.29188 87.69923 35654 ft 475 kts 273°
2026-04-24 12:47 69.29725 87.51522 35663 ft 470 kts 273°
2026-04-24 12:48 69.30281 87.33190 35649 ft 467 kts 276°
2026-04-24 12:48 69.31739 87.15303 35679 ft 470 kts 284°
2026-04-24 12:49 69.33604 86.97422 35679 ft 476 kts 284°
2026-04-24 12:49 69.35441 86.79299 35678 ft 481 kts 284°
2026-04-24 12:50 69.37251 86.60995 35669 ft 480 kts 284°
2026-04-24 12:50 69.39018 86.42892 35656 ft 472 kts 284°
2026-04-24 12:51 69.40455 86.24871 35675 ft 471 kts 275°
2026-04-24 12:51 69.40629 86.06328 35662 ft 470 kts 264°
2026-04-24 12:52 69.39936 85.87847 35678 ft 471 kts 263°
2026-04-24 12:52 69.39180 85.69326 35672 ft 472 kts 263°
2026-04-24 12:53 69.38435 85.50784 35669 ft 473 kts 263°
2026-04-24 12:53 69.37690 85.32229 35664 ft 473 kts 263°
2026-04-24 12:54 69.36929 85.13688 35662 ft 472 kts 262°
2026-04-24 12:54 69.36157 84.95340 35667 ft 471 kts 262°
2026-04-24 12:55 69.35360 84.76914 35667 ft 471 kts 262°
2026-04-24 12:55 69.34544 84.58503 35666 ft 470 kts 262°
2026-04-24 12:56 69.33707 84.40134 35661 ft 471 kts 262°
2026-04-24 12:56 69.32854 84.21793 35653 ft 471 kts 262°
2026-04-24 12:57 69.31979 84.03428 35653 ft 471 kts 262°
2026-04-24 12:57 69.31085 83.85057 35660 ft 472 kts 262°
2026-04-24 12:58 69.30325 83.69773 35649 ft 472 kts 261°
2026-04-24 12:58 69.29389 83.51353 35644 ft 473 kts 261°
2026-04-24 12:59 69.28280 83.29986 35642 ft 473 kts 261°
2026-04-24 12:59 69.27461 83.14559 35642 ft 473 kts 261°
2026-04-24 13:00 69.26468 82.96194 35638 ft 473 kts 261°
2026-04-24 13:00 69.25456 82.77850 35639 ft 473 kts 261°
2026-04-24 13:01 69.24429 82.59619 35638 ft 473 kts 261°
2026-04-24 13:01 69.23377 82.41297 35634 ft 474 kts 260°
2026-04-24 13:02 69.22306 82.22989 35630 ft 474 kts 260°
2026-04-24 13:02 69.21214 82.04694 35630 ft 474 kts 260°
2026-04-24 13:03 69.20102 81.86393 35633 ft 474 kts 260°
2026-04-24 13:03 69.18971 81.68107 35628 ft 474 kts 259°
2026-04-24 13:04 69.17821 81.49856 35624 ft 474 kts 259°
2026-04-24 13:04 69.16652 81.31633 35624 ft 474 kts 259°
2026-04-24 13:05 69.15464 81.13435 35621 ft 474 kts 259°
2026-04-24 13:05 69.14264 80.95361 35626 ft 474 kts 259°
2026-04-24 13:06 69.13040 80.77228 35626 ft 474 kts 259°
2026-04-24 13:06 69.11795 80.59078 35622 ft 473 kts 259°
2026-04-24 13:07 69.10532 80.40977 35621 ft 473 kts 258°
2026-04-24 13:07 69.09249 80.22883 35622 ft 473 kts 258°
2026-04-24 13:08 69.07949 80.04830 35619 ft 473 kts 258°
2026-04-24 13:08 69.06635 79.86813 35626 ft 473 kts 258°
2026-04-24 13:09 69.04630 79.59812 35623 ft 473 kts 258°
2026-04-24 13:09 69.03282 79.41848 35627 ft 472 kts 258°
2026-04-24 13:10 69.01917 79.23917 35623 ft 472 kts 258°
2026-04-24 13:10 69.00536 79.06013 35624 ft 472 kts 257°
2026-04-24 13:11 68.99109 78.88149 35623 ft 472 kts 257°
2026-04-24 13:11 68.97644 78.70424 35625 ft 472 kts 257°
2026-04-24 13:12 68.96154 78.52619 35629 ft 472 kts 257°
2026-04-24 13:12 68.94651 78.34830 35627 ft 472 kts 256°
2026-04-24 13:13 68.93131 78.17058 35630 ft 473 kts 256°
2026-04-24 13:13 68.91594 77.99326 35627 ft 473 kts 256°
2026-04-24 13:14 68.90036 77.81587 35630 ft 472 kts 256°
2026-04-24 13:14 68.88462 77.63900 35635 ft 472 kts 256°
2026-04-24 13:15 68.86868 77.46228 35634 ft 472 kts 256°
2026-04-24 13:15 68.85261 77.28633 35634 ft 471 kts 256°
2026-04-24 13:16 68.83634 77.11052 35635 ft 471 kts 256°
2026-04-24 13:16 68.81989 76.93484 35636 ft 471 kts 255°
2026-04-24 13:17 68.80328 76.75979 35633 ft 471 kts 255°
2026-04-24 13:17 68.78662 76.58628 35635 ft 470 kts 255°
2026-04-24 13:18 68.76970 76.41212 35637 ft 470 kts 255°
2026-04-24 13:18 68.75256 76.23790 35637 ft 470 kts 255°
2026-04-24 13:19 68.73526 76.06414 35639 ft 470 kts 255°
2026-04-24 13:19 68.71777 75.89055 35640 ft 470 kts 255°
2026-04-24 13:20 68.70014 75.71745 35643 ft 470 kts 254°
2026-04-24 13:20 68.68234 75.54484 35643 ft 470 kts 254°
2026-04-24 13:21 68.66436 75.37239 35643 ft 470 kts 254°
2026-04-24 13:21 68.64620 75.20020 35643 ft 469 kts 254°
2026-04-24 13:22 68.62786 75.02821 35641 ft 469 kts 254°
2026-04-24 13:22 68.60937 74.85679 35641 ft 469 kts 253°
2026-04-24 13:23 68.59074 74.68592 35643 ft 469 kts 253°
2026-04-24 13:23 68.57203 74.51618 35643 ft 468 kts 253°
2026-04-24 13:24 68.55305 74.34582 35642 ft 468 kts 253°
2026-04-24 13:24 68.53391 74.17577 35647 ft 468 kts 253°
2026-04-24 13:25 68.51457 74.00589 35642 ft 468 kts 253°
2026-04-24 13:25 68.49511 73.83651 35643 ft 468 kts 253°
2026-04-24 13:26 68.47549 73.66745 35643 ft 468 kts 252°
2026-04-24 13:26 68.45931 73.49616 35646 ft 467 kts 259°
2026-04-24 13:27 68.44730 73.32237 35644 ft 468 kts 259°
2026-04-24 13:27 68.43506 73.14850 35644 ft 468 kts 259°
2026-04-24 13:28 68.42251 72.97602 35646 ft 468 kts 259°
2026-04-24 13:28 68.40965 72.80302 35645 ft 468 kts 258°
2026-04-24 13:29 68.39658 72.62985 35647 ft 468 kts 258°
2026-04-24 13:29 68.38337 72.45731 35646 ft 468 kts 258°
2026-04-24 13:30 68.36996 72.28461 35652 ft 467 kts 258°
2026-04-24 13:30 68.35641 72.11256 35652 ft 467 kts 258°
2026-04-24 13:31 68.34265 71.94040 35649 ft 467 kts 258°
2026-04-24 13:31 68.32874 71.76867 35647 ft 467 kts 257°
2026-04-24 13:32 68.31464 71.59699 35650 ft 467 kts 257°
2026-04-24 13:32 68.30048 71.42683 35647 ft 467 kts 257°
2026-04-24 13:33 68.28606 71.25559 35649 ft 467 kts 257°
2026-04-24 13:33 68.27144 71.08480 35648 ft 467 kts 257°
2026-04-24 13:34 68.25665 70.91426 35648 ft 467 kts 257°
2026-04-24 13:34 68.24171 70.74394 35644 ft 467 kts 257°
2026-04-24 13:35 68.22661 70.57381 35645 ft 467 kts 256°
2026-04-24 13:35 68.21135 70.40394 35645 ft 466 kts 256°
2026-04-24 13:36 68.19593 70.23463 35641 ft 466 kts 256°
2026-04-24 13:36 68.18031 70.06511 35643 ft 466 kts 256°
2026-04-24 13:37 68.16455 69.89630 35644 ft 466 kts 256°
2026-04-24 13:37 68.14865 69.72796 35634 ft 465 kts 256°
2026-04-24 13:38 68.13264 69.56051 35637 ft 465 kts 255°
2026-04-24 13:38 68.11637 69.39241 35633 ft 465 kts 255°
2026-04-24 13:39 68.09993 69.22454 35635 ft 465 kts 255°
2026-04-24 13:39 68.08332 69.05689 35635 ft 465 kts 255°
2026-04-24 13:40 68.06668 68.89077 35630 ft 465 kts 255°
2026-04-24 13:40 68.04974 68.72371 35628 ft 466 kts 255°
2026-04-24 13:41 68.03260 68.55655 35630 ft 465 kts 254°
2026-04-24 13:41 68.01532 68.38990 35624 ft 465 kts 254°
2026-04-24 13:42 67.99803 68.22498 35623 ft 464 kts 254°
2026-04-24 13:42 67.98047 68.05932 35621 ft 464 kts 254°
2026-04-24 13:43 67.96276 67.89401 35621 ft 464 kts 254°
2026-04-24 13:43 67.94490 67.72904 35622 ft 464 kts 253°
2026-04-24 13:44 67.92688 67.56422 35622 ft 463 kts 253°
2026-04-24 13:44 67.90865 67.40001 35624 ft 463 kts 253°
2026-04-24 13:45 67.89331 67.26374 35624 ft 463 kts 253°
2026-04-24 13:45 67.87474 67.10009 35620 ft 463 kts 253°
2026-04-24 13:46 67.85602 66.93650 35617 ft 463 kts 252°
2026-04-24 13:46 67.83718 66.77328 35618 ft 463 kts 252°
2026-04-24 13:47 67.81812 66.61013 35613 ft 464 kts 252°
2026-04-24 13:47 67.79894 66.44707 35614 ft 464 kts 252°
2026-04-24 13:48 67.77971 66.28499 35616 ft 465 kts 252°
2026-04-24 13:48 67.76020 66.12212 35612 ft 465 kts 252°
2026-04-24 13:49 67.74053 65.95945 35619 ft 465 kts 252°
2026-04-24 13:49 67.72069 65.79685 35610 ft 465 kts 251°
2026-04-24 13:50 67.70075 65.63484 35605 ft 465 kts 251°
2026-04-24 13:50 67.68074 65.47329 35606 ft 464 kts 251°
2026-04-24 13:51 67.66062 65.31224 35599 ft 463 kts 251°
2026-04-24 13:51 67.64036 65.15159 35605 ft 463 kts 251°
2026-04-24 13:52 67.62006 64.99198 35592 ft 464 kts 251°
2026-04-24 13:52 67.59946 64.83153 35591 ft 464 kts 251°
2026-04-24 13:53 67.57880 64.67112 35585 ft 464 kts 251°
2026-04-24 13:53 67.55805 64.51108 35583 ft 464 kts 250°
2026-04-24 13:54 67.53713 64.35128 35575 ft 464 kts 250°
2026-04-24 13:54 67.51606 64.19170 35586 ft 464 kts 250°
2026-04-24 13:55 67.49482 64.03241 35584 ft 464 kts 250°
2026-04-24 13:55 67.46860 63.87967 35584 ft 463 kts 242°